OPS 0203 (DMSP 5A F2)

Satellite information

Favourite Embed

Satellite Type and Status

PAYLOADIN ORBIT

Key statistics

Satellite OPS 0203 (DMSP 5A F2) at a glance.

Uptime

19972

Days in orbit

Revolutions

≈ 14.4

Per day

Orbit

SSO

Sun Synchronous Orbit

Inclination

98.8

Latest

Satellite identification and parameters

Extended collection of information and parameters for OPS 0203 (DMSP 5A F2).

Object identification

Identified? True

Debris? False

Object name: OPS 0203 (DMSP 5A F2)

International designator: 1970-070A

Object number (NORAD): 4512

Object ID (CCSDS): 4512

Country: UNITED STATES OF AMERICA (US)

Current information (Y/N): Y

RCS size: MEDIUM

Orbital parameters

Period: 100.265 minutes

Inclination: 98.8418 deg

SMA: 7149.254 km

Apoapsis: 815.882 km

Periapsis: 726.356 km

RAAN: 59.9361 deg

Eccentricy: 0.0062612

Argument of periapsis: 199.5381 deg

Mean anomaly: 160.3403 deg

Mean motion: 14.36189367 rev/day

Mean motion (dot): 0.0000031 rev/day2

B* drag term: 0.00011956 1/REarth

Two-line elements (TLE)

Creation date: May 8, 2025, 3:01 a.m.

Reference frame: TEME

Reference center: EARTH

Epoch: May 7, 2025, 6:17 p.m. UTC

TLE line 0: 0 OPS 0203 (DMSP 5A F2)

TLE line 1: 1 04512U 70070A 25127.76193924 .00000310 00000-0 11956-3 0 9993

TLE line 2: 2 04512 98.8418 59.9361 0062612 199.5381 160.3403 14.36189367853425

Live tracking on map

Real-time ground track for satellite OPS 0203 (DMSP 5A F2).

In-orbit conjunctions

There are no conjunctions computed for OPS 0203 (DMSP 5A F2), at the moment. Check back to stay up to date, as we update our databases every day.

Go to all conjunctions

Associated space launch

Military meteorological satellite

OPS 0203 (DMSP 5A F2) was lifted into orbit during the mission ‘Thor Burner 2 | DSAP-5A F2’, on board a Thor Burner 2 space rocket.

The launch took place on Sept. 3, 1970, 8:39 a.m. from Space Launch Complex 10W.

For more information about the launch, click the button.

Launch to space Thor Burner 2 | DSAP-5A F2
Thor Burner 2 | DSAP-5A F2

Agency: N/A

Status: Launch Successful

Launch date: Sept. 3, 1970, 8:39 a.m. UTC

Rocket: Thor Burner 2

Launch pad: Space Launch Complex 10W

Location: Vandenberg SFB, CA, USA

...

Latest news about this satellite

There are no fresh news available about this satellite. Check back as we update our databases every day.


Newsletter sign-up

Weekly statistics, charts and insights to help you stay on top of the space industry.